Weather in Galbay

Russia / Republic of Buryatia     51°47′22″N   102°32′21″E
temp.,
°C
wind,
m/s
gust,
m/s
humid.,
%
clouds,
%
prec.,
mm/h
press.,
hPa
HPBL,
m
17 june, thu
thu1723:00+6sw018492 0.0 101615
02:00+5sw118423 0.0 101811
05:00+5sw118424 0.0 101811
08:00+10w11685 0.0 1017244
11:00+16ene115114 0.0 1015876
14:00+18e124432 0.0 10131776
17:00+19e23426 0.0 10111670
20:00+16ese23617 0.0 101151
18 june, fri
fri1823:00+10e117421 0.1 101213
02:00+7ssw11831 0.4 101310
05:00+6s11860 0.0 101310
08:00+11w017433 0.0 1011186
11:00+18w015470 0.0 1008518
14:00+21ne2244100 0.1 10062011
17:00+17e236341 0.6 1008661
20:00+16se016845 0.6 100816
19 june, sat
sat1923:00+10s1182100 0.0 100911
02:00+9sse008541 0.0 100910
05:00+9e018850 0.0 100810
08:00+12sse118087 0.0 1008114
11:00+19nnw116026 0.0 1006552
14:00+23nnw014612 0.0 1003896
17:00+23e22425 0.0 10011065
20:00+20e36624 0.0 1001114
20 june, sun
sun2023:00+13ese11785 0.3 100315
02:00+11ssw00832 0.5 100410
05:00+10s00843 0.0 100310
08:00+15nnw117216 0.0 1003182
11:00+21e125531 0.0 1002444
14:00+26ene234111 0.0 9991207
17:00+22ene696265 0.4 10021063
20:00+16e238485 2.1 100547
21 june, mon
mon2123:00+15se0188100 3.1 100712
02:00+14w1190100 3.5 100812
05:00+12ssw009231 0.1 100911
08:00+16sw018435 0.1 1010248
11:00+21ne12656 0.7 1008598
14:00+25ne12444 0.7 10061334
17:00+26ne32425 0.0 10062093
20:00+21e226371 0.1 100733